Hourly Data Report for October 11, 2013

All times are specified in Local Standard Time (LST). Add 1 hour to adjust for Daylight Saving Time where and when it is observed.

MONCTON INTL A
NEW BRUNSWICK

46°06'44.000" N
64°40'43.000" W
70.70 m
8103201
71705
YQM

Download Data

Hourly Data (October 2013)
Hourly Data Report for October 11, 2013
Temp Definition
°C
Dew Point Temp Definition
°C
Rel Hum Definition
%
Wind Dir Definition
10's deg

Wind Spd Definition
km/h
Visibility Definition
km
Stn Press Definition
kPa
Hmdx Definition


Wind Chill Definition


Weather Definition


TIME
00:00 Legend Double Dagger 8.7 6.8 88 23 14 24.1 101.20     LegendNANA
01:00 Legend Double Dagger 7.5 6.3 92 21 11 24.1 101.19     LegendNANA
02:00 Legend Double Dagger 7.6 6.2 91 23 13 24.1 101.18     Clear
03:00 Legend Double Dagger 7.0 6.0 93 23 12 24.1 101.15     LegendNANA
04:00 Legend Double Dagger 7.1 6.1 93 23 13 24.1 101.19     LegendNANA
05:00 Legend Double Dagger 6.8 5.8 93 22 12 24.1 101.21     Mainly Clear
06:00 Legend Double Dagger 6.3 5.6 95 21 12 24.1 101.25     LegendNANA
07:00 Legend Double Dagger 5.9 5.3 96 23 9 24.1 101.25     LegendNANA
08:00 Legend Double Dagger 8.4 6.9 90 21 9 24.1 101.28     Mainly Clear
09:00 Legend Double Dagger 12.2 8.5 78 33 8 24.1 101.30     LegendNANA
10:00 Legend Double Dagger 15.1 10.6 74 1 13 24.1 101.30     LegendNANA
11:00 Legend Double Dagger 16.9 11.2 69 3 10 24.1 101.27     Mainly Clear
12:00 Legend Double Dagger 16.6 11.4 71 1 19 24.1 101.27     LegendNANA
13:00 Legend Double Dagger 16.2 11.0 71 3 15 24.1 101.24     LegendNANA
14:00 Legend Double Dagger 17.3 11.4 68 4 21 24.1 101.25     Mainly Clear
15:00 Legend Double Dagger 14.2 10.5 78 2 26 24.1 101.31     LegendNANA
16:00 Legend Double Dagger 12.9 10.1 83 3 25 24.1 101.34     LegendNANA
17:00 Legend Double Dagger 11.7 9.5 86 3 23 24.1 101.41     Cloudy
18:00 Legend Double Dagger 11.4 9.2 86 3 18 24.1 101.48     LegendNANA
19:00 Legend Double Dagger 11.2 9.0 86 3 22 24.1 101.53     LegendNANA
20:00 Legend Double Dagger 10.7 8.1 84 5 18 24.1 101.57     Cloudy
21:00 Legend Double Dagger 9.9 6.8 81 4 15 24.1 101.61     LegendNANA
22:00 Legend Double Dagger 7.9 5.9 87 4 10 24.1 101.64     LegendNANA
23:00 Legend Double Dagger 6.5 5.1 91 2 10 24.1 101.65     Mainly Clear

Notes on Data Quality.

Legend

  • E = Estimated
  • M = Missing
  • NA = Not Available
  • ‡ = Partner data that is not subject to review by the National Climate Archives
Date modified: